Weather History for Dublin, VA

Change the Weather History Date:

Tuesday, April 23, 2013

  Actual Average (KBCB) Record (KBCB)
Temperature  
Mean Temperature 53 °F 53 °F  
Max Temperature 71 °F 66 °F 85 °F (1985)
Min Temperature 35 °F 40 °F 20 °F (1982)
Degree Days  
Heating Degree Days 12 12  
Month to date heating degree days 353  
Since 1 July heating degree days 5128  
Cooling Degree Days 0 0  
Month to date cooling degree days 0  
Year to date cooling degree days 0  
Growing Degree Days 3 (Base 50)    
Moisture  
Dew Point 39 °F    
Average Humidity 63    
Maximum Humidity 93    
Minimum Humidity 27    
Precipitation  
Precipitation 0.00 in 0.12 in 1.45 in (1958)
Month to date precipitation 2.67  
Year to date precipitation 12.20  
Snow  
Snow 0.00 in - - ()
Month to date snowfall  
Since 1 July snowfall  
Snow Depth -    
Sea Level Pressure  
Sea Level Pressure 30.21 in    
Wind  
Wind Speed 1 mph (SSW)    
Max Wind Speed 8 mph    
Max Gust Speed -    
Visibility 10 miles    
Events      
T = Trace of Precipitation, MM = Missing Value Source: NWS Daily Summary

Daily Weather History Graph

Daily Weather History Graph

Search for Another Location

Airport:

Trip Planner

Search our weather history database for the weather conditions in past years. The results will help you decide how hot, cold, wet, or windy it might be!

Date:

Astronomy

Apr. 23, 2013 Rise Set
Actual Time 6:37 AM EDT 8:05 PM EDT
Civil Twilight 6:10 AM EDT 8:32 PM EDT
Nautical Twilight 5:37 AM EDT 9:05 PM EDT
Astronomical Twilight 5:02 AM EDT 9:40 PM EDT
Moon 6:00 PM EDT (4/23) 5:01 AM EDT (4/23)
Length of Visible Light 14h 22m
Length of Day
13h 27m
Waxing Gibbous, 94% of the Moon is Illuminated
Apr 23
Waxing Gibbous
Apr 25
Full
May 2
Last Quarter
May 9
New
May 18
First Quarter

Hourly Weather History & Observations

Time (EDT) Temp. Windchill Dew Point Humidity Pressure Visibility Wind Dir Wind Speed Gust Speed Precip Events Conditions
12:15 AM 39.2 °F - 30.2 °F 70% 30.32 in 10.0 mi Calm Calm - N/A   Clear
12:35 AM 39.2 °F - 28.4 °F 65% 30.32 in 10.0 mi Calm Calm - N/A   Clear
12:55 AM 39.2 °F - 30.2 °F 70% 30.32 in 10.0 mi Calm Calm - N/A   Clear
1:15 AM 41.0 °F - 30.2 °F 65% 30.31 in 10.0 mi Calm Calm - N/A   Clear
1:35 AM 37.4 °F - 30.2 °F 75% 30.31 in 10.0 mi Calm Calm - N/A   Clear
1:55 AM 37.4 °F - 30.2 °F 75% 30.31 in 10.0 mi Calm Calm - N/A   Scattered Clouds
2:15 AM 37.4 °F - 30.2 °F 75% 30.30 in 10.0 mi Calm Calm - N/A   Clear
2:35 AM 37.4 °F - 30.2 °F 75% 30.29 in 10.0 mi Calm Calm - N/A   Clear
2:55 AM 35.6 °F 32.8 °F 30.2 °F 81% 30.29 in 10.0 mi WNW 3.5 mph - N/A   Clear
3:15 AM 35.6 °F - 32.0 °F 87% 30.29 in 10.0 mi Calm Calm - N/A   Clear
3:35 AM 35.6 °F - 32.0 °F 87% 30.29 in 10.0 mi Calm Calm - N/A   Clear
3:55 AM 37.4 °F 34.9 °F 32.0 °F 81% 30.29 in 10.0 mi WNW 3.5 mph - N/A   Scattered Clouds
4:15 AM 37.4 °F 34.9 °F 33.8 °F 87% 30.29 in 10.0 mi West 3.5 mph - N/A   Mostly Cloudy
4:35 AM 39.2 °F - 35.6 °F 87% 30.28 in 10.0 mi Calm Calm - N/A   Overcast
4:55 AM 39.2 °F - 35.6 °F 87% 30.28 in 10.0 mi Calm Calm - N/A   Overcast
5:15 AM 39.2 °F - 37.4 °F 93% 30.27 in 10.0 mi Calm Calm - N/A   Overcast
5:35 AM 41.0 °F - 37.4 °F 87% 30.27 in 10.0 mi Calm Calm - N/A   Overcast
5:55 AM 41.0 °F - 37.4 °F 87% 30.27 in 10.0 mi Calm Calm - N/A   Overcast
6:15 AM 39.2 °F - 37.4 °F 93% 30.27 in 10.0 mi Calm Calm - N/A   Scattered Clouds
6:35 AM 39.2 °F - 35.6 °F 87% 30.27 in 10.0 mi Calm Calm - N/A   Clear
6:55 AM 39.2 °F - 35.6 °F 87% 30.27 in 10.0 mi Calm Calm - N/A   Clear
7:15 AM 39.2 °F - 35.6 °F 87% 30.27 in 10.0 mi Calm Calm - N/A   Clear
7:35 AM 39.2 °F - 37.4 °F 93% 30.27 in 10.0 mi Calm Calm - N/A   Clear
7:55 AM 42.8 °F - 39.2 °F 87% 30.27 in 10.0 mi Calm Calm - N/A   Clear
8:15 AM 42.8 °F - 39.2 °F 87% 30.27 in 10.0 mi Calm Calm - N/A   Scattered Clouds
8:35 AM 46.4 °F - 39.2 °F 76% 30.27 in 10.0 mi Calm Calm - N/A   Scattered Clouds
8:55 AM 46.4 °F 45.2 °F 39.2 °F 76% 30.27 in 10.0 mi East 3.5 mph - N/A   Clear
9:15 AM 48.2 °F - 39.2 °F 71% 30.27 in 10.0 mi Calm Calm - N/A   Clear
9:35 AM 50.0 °F - 39.2 °F 66% 30.28 in 10.0 mi Calm Calm - N/A   Clear
9:55 AM 51.8 °F - 41.0 °F 67% 30.28 in 10.0 mi West 3.5 mph - N/A   Clear
10:15 AM 53.6 °F - 42.8 °F 67% 30.27 in 10.0 mi Calm Calm - N/A   Clear
10:35 AM 53.6 °F - 42.8 °F 67% 30.27 in 10.0 mi West 3.5 mph - N/A   Clear
10:55 AM 55.4 °F - 42.8 °F 63% 30.26 in 10.0 mi SW 3.5 mph - N/A   Clear
11:15 AM 57.2 °F - 44.6 °F 63% 30.28 in 10.0 mi SSW 3.5 mph - N/A   Clear
11:35 AM 57.2 °F - 44.6 °F 63% 30.26 in 10.0 mi WSW 4.6 mph - N/A   Clear
11:55 AM 59.0 °F - 44.6 °F 59% 30.25 in 10.0 mi South 6.9 mph - N/A   Clear
12:15 PM 59.0 °F - 44.6 °F 59% 30.23 in 10.0 mi Calm Calm - N/A   Clear
12:35 PM 62.6 °F - 44.6 °F 52% 30.23 in 10.0 mi Calm Calm - N/A   Clear
12:55 PM 62.6 °F - 44.6 °F 52% 30.22 in 10.0 mi SW 6.9 mph - N/A   Clear
1:15 PM 62.6 °F - 42.8 °F 48% 30.21 in 10.0 mi Calm Calm - N/A   Clear
1:35 PM 64.4 °F - 44.6 °F 49% 30.20 in 10.0 mi Calm Calm - N/A   Clear
1:55 PM 64.4 °F - 42.8 °F 45% 30.19 in 10.0 mi NNE 3.5 mph - N/A   Clear
2:15 PM 66.2 °F - 39.2 °F 37% 30.18 in 10.0 mi SE 3.5 mph - N/A   Clear
2:35 PM 68.0 °F - 37.4 °F 33% 30.17 in 10.0 mi Calm Calm - N/A   Clear
2:55 PM 68.0 °F - 37.4 °F 33% 30.17 in 10.0 mi Calm Calm - N/A   Clear
3:15 PM 68.0 °F - 37.4 °F 33% 30.16 in 10.0 mi Calm Calm - N/A   Clear
3:35 PM 69.8 °F - 39.2 °F 33% 30.14 in 10.0 mi SW 4.6 mph - N/A   Clear
3:55 PM 69.8 °F - 37.4 °F 31% 30.13 in 10.0 mi South 3.5 mph - N/A   Clear
4:15 PM 71.6 °F - 37.4 °F 29% 30.13 in 7.0 mi Calm Calm - N/A   Clear
4:35 PM 69.8 °F - 35.6 °F 28% 30.12 in 10.0 mi ESE 4.6 mph - N/A   Clear
4:55 PM 71.6 °F - 35.6 °F 27% 30.12 in 10.0 mi ESE 3.5 mph - N/A   Clear
5:15 PM 69.8 °F - 35.6 °F 28% 30.11 in 10.0 mi Calm Calm - N/A   Clear
5:35 PM 69.8 °F - 35.6 °F 28% 30.10 in 10.0 mi ESE 3.5 mph - N/A   Clear
5:55 PM 69.8 °F - 35.6 °F 28% 30.10 in 10.0 mi Calm Calm - N/A   Clear
6:15 PM 69.8 °F - 37.4 °F 31% 30.11 in 10.0 mi SSE 5.8 mph - N/A   Clear
6:35 PM 69.8 °F - 35.6 °F 28% 30.11 in 10.0 mi South 4.6 mph - N/A   Clear
6:55 PM 68.0 °F - 42.8 °F 40% 30.11 in 10.0 mi SSW 8.1 mph - N/A   Clear
7:15 PM 66.2 °F - 46.4 °F 49% 30.12 in 10.0 mi SSW 8.1 mph - N/A   Clear
7:35 PM 64.4 °F - 44.6 °F 49% 30.12 in 10.0 mi SSW 8.1 mph - N/A   Clear
7:55 PM 62.6 °F - 44.6 °F 52% 30.12 in 10.0 mi SSW 5.8 mph - N/A   Clear
8:15 PM 60.8 °F - 44.6 °F 55% 30.13 in 10.0 mi South 3.5 mph - N/A   Clear
8:35 PM 60.8 °F - 46.4 °F 59% 30.13 in 10.0 mi South 3.5 mph - N/A   Clear
8:55 PM 59.0 °F - 46.4 °F 63% 30.12 in 10.0 mi South 4.6 mph - N/A   Clear
9:15 PM 57.2 °F - 46.4 °F 67% 30.12 in 10.0 mi SE 3.5 mph - N/A   Clear
9:35 PM 57.2 °F - 46.4 °F 67% 30.13 in 10.0 mi Calm Calm - N/A   Scattered Clouds
9:55 PM 57.2 °F - 46.4 °F 67% 30.13 in 10.0 mi Calm Calm - N/A   Clear
10:15 PM 57.2 °F - 46.4 °F 67% 30.13 in 10.0 mi Calm Calm - N/A   Clear
10:35 PM 53.6 °F - 46.4 °F 77% 30.14 in 10.0 mi Calm Calm - N/A   Clear
10:55 PM 57.2 °F - 48.2 °F 72% 30.14 in 10.0 mi South 5.8 mph - N/A   Clear
11:15 PM 57.2 °F - 48.2 °F 72% 30.14 in 10.0 mi SSW 5.8 mph - N/A   Clear
11:35 PM 55.4 °F - 48.2 °F 77% 30.14 in 10.0 mi South 4.6 mph - N/A   Clear
11:55 PM 55.4 °F - 48.2 °F 77% 30.14 in 10.0 mi SSW 4.6 mph - N/A   Clear